| time (UTC) | temp C | wind direction | speed KPH | gust KPH | rain 1hr cm | rain 24hr cm | rain mn cm | humidity % | barometer mb |
| 20260507225642 | -17 | 56 | 4.8 | 8.0 | 0.00 | 0.00 | 0.00 | 1010.0 | |
| 20260507225136 | -17 | 53 | 3.2 | 8.0 | 0.00 | 0.00 | 0.00 | 1010.1 | |
| 20260507224357 | -17 | 45 | 4.8 | 8.0 | 0.00 | 0.00 | 0.00 | 1010.1 | |
| 20260507223849 | -17 | 52 | 4.8 | 11.3 | 0.00 | 0.00 | 0.00 | 1010.1 | |
| 20260507223334 | -17 | 48 | 6.4 | 12.9 | 0.00 | 0.00 | 0.00 | 1010.1 | |
| 20260507222819 | -17 | 61 | 6.4 | 12.9 | 0.00 | 0.00 | 0.00 | 1010.0 | |
| 20260507222318 | -17 | 29 | 6.4 | 12.9 | 0.00 | 0.00 | 0.00 | 1009.9 | |
| 20260507221815 | -17 | 47 | 6.4 | 12.9 | 0.00 | 0.00 | 0.00 | 1010.0 | |
| 20260507221309 | -17 | 45 | 6.4 | 14.5 | 0.00 | 0.00 | 0.00 | 1010.0 | |
| 20260507220810 | -17 | 52 | 6.4 | 16.1 | 0.00 | 0.00 | 0.00 | 1009.9 | |
| 20260507220532 | -17 | 10 | 6.4 | 12.9 | 0.00 | 0.00 | 0.00 | 1009.9 | |
| 20260507215801 | -17 | 51 | 8.0 | 12.9 | 0.00 | 0.00 | 0.00 | 1010.0 | |
| 20260507215258 | -17 | 53 | 6.4 | 12.9 | 0.00 | 0.00 | 0.00 | 1010.1 | |
| 20260507214749 | -17 | 76 | 6.4 | 14.5 | 0.00 | 0.00 | 0.00 | 1010.1 | |
| 20260507214516 | -17 | 10 | 6.4 | 16.1 | 0.00 | 0.00 | 0.00 | 1010.1 | |
| 20260507213737 | -17 | 10 | 6.4 | 16.1 | 0.00 | 0.00 | 0.00 | 1010.1 | |
| 20260507213505 | -17 | 10 | 8.0 | 17.7 | 0.00 | 0.00 | 0.00 | 1010.2 | |
| 20260507212728 | -17 | 42 | 8.0 | 17.7 | 0.00 | 0.00 | 0.00 | 1010.3 | |
| 20260507212223 | -17 | 53 | 8.0 | 14.5 | 0.00 | 0.00 | 0.00 | 1010.3 | |
| 20260507211719 | -17 | 30 | 9.7 | 16.1 | 0.00 | 0.00 | 0.00 | 1010.4 | |
| 20260507211446 | -17 | 60 | 11.3 | 17.7 | 0.00 | 0.00 | 0.00 | 1010.4 | |
| 20260507210708 | -17 | 10 | 12.9 | 17.7 | 0.00 | 0.00 | 0.00 | 1010.4 | |
| 20260507210203 | -17 | 10 | 12.9 | 17.7 | 0.00 | 0.00 | 0.00 | 1010.4 | |
| 20260507205657 | -17 | 10 | 11.3 | 17.7 | 0.00 | 0.00 | 0.00 | 1010.5 | |
| 20260507205152 | -17 | 10 | 12.9 | 17.7 | 0.00 | 0.00 | 0.00 | 1010.5 | |
| 20260507204644 | -17 | 61 | 11.3 | 17.7 | 0.00 | 0.00 | 0.00 | 1010.6 | |
| 20260507204139 | -17 | 55 | 11.3 | 17.7 | 0.00 | 0.00 | 0.00 | 1010.7 | |
| 20260507203632 | -17 | 50 | 11.3 | 17.7 | 0.00 | 0.00 | 0.00 | 1010.8 | |
| 20260507203124 | -17 | 61 | 9.7 | 16.1 | 0.00 | 0.00 | 0.00 | 1011.0 | |
| 20260507202621 | -17 | 54 | 11.3 | 17.7 | 0.00 | 0.00 | 0.00 | 1011.1 | |
| 20260507202113 | -17 | 10 | 11.3 | 17.7 | 0.00 | 0.00 | 0.00 | 1011.2 | |
| 20260507201607 | -17 | 10 | 8.0 | 16.1 | 0.00 | 0.00 | 0.00 | 1011.2 | |
| 20260507201101 | -17 | 40 | 8.0 | 14.5 | 0.00 | 0.00 | 0.00 | 1011.2 | |
| 20260507200552 | -17 | 60 | 8.0 | 14.5 | 0.00 | 0.00 | 0.00 | 1011.3 | |
| 20260507200044 | -17 | 10 | 9.7 | 16.1 | 0.00 | 0.00 | 0.00 | 1011.4 | |
| 20260507195533 | -17 | 10 | 8.0 | 19.3 | 0.00 | 0.00 | 0.00 | 1011.4 | |
| 20260507195024 | -17 | 10 | 8.0 | 19.3 | 0.00 | 0.00 | 0.00 | 1011.5 | |
| 20260507194514 | -17 | 10 | 8.0 | 16.1 | 0.00 | 0.00 | 0.00 | 1011.5 | |
| 20260507194004 | -17 | 37 | 9.7 | 16.1 | 0.00 | 0.00 | 0.00 | 1011.5 | |
| 20260507193454 | -17 | 10 | 8.0 | 17.7 | 0.00 | 0.00 | 0.00 | 1011.5 | |
| 20260507192945 | -17 | 21 | 9.7 | 17.7 | 0.00 | 0.00 | 0.00 | 1011.5 | |
| 20260507192435 | -17 | 10 | 9.7 | 17.7 | 0.00 | 0.00 | 0.00 | 1011.6 | |
| 20260507191925 | -17 | 10 | 11.3 | 17.7 | 0.00 | 0.00 | 0.00 | 1011.7 | |
| 20260507191415 | -17 | 21 | 11.3 | 17.7 | 0.00 | 0.00 | 0.00 | 1011.9 | |
| 20260507191136 | -17 | 23 | 11.3 | 17.7 | 0.00 | 0.00 | 0.00 | 1011.9 | |
| 20260507190354 | -17 | 19 | 9.7 | 17.7 | 0.00 | 0.00 | 0.00 | 1012.1 | |
| 20260507185844 | -17 | 10 | 11.3 | 17.7 | 0.00 | 0.00 | 0.00 | 1012.1 | |
| 20260507185337 | -17 | 34 | 9.7 | 17.7 | 0.00 | 0.00 | 0.00 | 1012.1 | |
| 20260507184824 | -17 | 10 | 9.7 | 16.1 | 0.00 | 0.00 | 0.00 | 1012.2 | |
| 20260507184315 | -17 | 10 | 8.0 | 16.1 | 0.00 | 0.00 | 0.00 | 1012.2 | |
| 20260507183804 | -17 | 19 | 8.0 | 17.7 | 0.00 | 0.00 | 0.00 | 1012.4 | |
| 20260507183254 | -17 | 10 | 8.0 | 17.7 | 0.00 | 0.00 | 0.00 | 1012.5 | |
| 20260507182744 | -17 | 48 | 8.0 | 17.7 | 0.00 | 0.00 | 0.00 | 1012.5 | |
| 20260507182234 | -17 | 20 | 9.7 | 19.3 | 0.00 | 0.00 | 0.00 | 1012.5 | |
| 20260507181723 | -17 | 10 | 9.7 | 19.3 | 0.00 | 0.00 | 0.00 | 1012.6 | |
| 20260507181212 | -17 | 10 | 9.7 | 19.3 | 0.00 | 0.00 | 0.00 | 1012.6 | |
| 20260507180700 | -17 | 10 | 11.3 | 20.9 | 0.00 | 0.00 | 0.00 | 1012.5 | |
| 20260507180423 | -17 | 32 | 14.5 | 20.9 | 0.00 | 0.00 | 0.00 | 1012.5 | |
| 20260507175641 | -17 | 10 | 12.9 | 19.3 | 0.00 | 0.00 | 0.00 | 1012.4 | |
| 20260507174625 | -17 | 26 | 12.9 | 22.5 | 0.00 | 0.00 | 0.00 | 1012.5 | |
| 20260507174115 | -17 | 10 | 11.3 | 22.5 | 0.00 | 0.00 | 0.00 | 1012.7 | |
| 20260507173605 | -17 | 37 | 11.3 | 22.5 | 0.00 | 0.00 | 0.00 | 1012.7 | |
| 20260507173326 | -17 | 10 | 12.9 | 22.5 | 0.00 | 0.00 | 0.00 | 1012.7 | |
| 20260507172544 | -17 | 10 | 12.9 | 20.9 | 0.00 | 0.00 | 0.00 | 1012.9 | |
| 20260507172308 | -17 | 10 | 12.9 | 20.9 | 0.00 | 0.00 | 0.00 | 1012.9 | |
| 20260507171524 | -17 | 10 | 14.5 | 22.5 | 0.00 | 0.00 | 0.00 | 1012.8 | |
| 20260507171015 | -17 | 10 | 14.5 | 24.1 | 0.00 | 0.00 | 0.00 | 1012.7 | |
| 20260507170735 | -17 | 348 | 14.5 | 24.1 | 0.00 | 0.00 | 0.00 | 1012.8 | |
| 20260507165955 | -17 | 15 | 16.1 | 22.5 | 0.00 | 0.00 | 0.00 | 1012.7 | |
| 20260507165444 | -17 | 42 | 14.5 | 24.1 | 0.00 | 0.00 | 0.00 | 1012.7 | |
| 20260507164934 | -17 | 23 | 12.9 | 22.5 | 0.00 | 0.00 | 0.00 | 1012.7 | |
| 20260507164424 | -17 | 10 | 12.9 | 22.5 | 0.00 | 0.00 | 0.00 | 1012.7 | |
| 20260507163914 | -17 | 10 | 12.9 | 20.9 | 0.00 | 0.00 | 0.00 | 1012.8 | |
| 20260507163404 | -17 | 10 | 12.9 | 20.9 | 0.00 | 0.00 | 0.00 | 1012.8 | |
| 20260507162854 | -17 | 10 | 11.3 | 20.9 | 0.00 | 0.00 | 0.00 | 1012.8 | |
| 20260507162344 | -17 | 10 | 11.3 | 20.9 | 0.00 | 0.00 | 0.00 | 1012.8 | |
| 20260507161834 | -17 | 20 | 9.7 | 19.3 | 0.00 | 0.00 | 0.00 | 1012.7 | |
| 20260507161324 | -17 | 48 | 9.7 | 20.9 | 0.00 | 0.00 | 0.00 | 1012.6 | |
| 20260507160815 | -17 | 10 | 11.3 | 20.9 | 0.00 | 0.00 | 0.00 | 1012.7 | |
| 20260507160536 | -17 | 10 | 9.7 | 20.9 | 0.00 | 0.00 | 0.00 | 1012.6 | |
| 20260507155754 | -17 | 5 | 9.7 | 16.1 | 0.00 | 0.00 | 0.00 | 1012.5 | |
| 20260507155514 | -17 | 10 | 9.7 | 17.7 | 0.00 | 0.00 | 0.00 | 1012.6 | |
| 20260507155001 | -17 | 10 | 11.3 | 20.9 | 0.00 | 0.00 | 0.00 | 1012.6 | |
| 20260507154452 | -17 | 10 | 11.3 | 20.9 | 0.00 | 0.00 | 0.00 | 1012.6 | |
| 20260507153710 | -17 | 10 | 11.3 | 20.9 | 0.00 | 0.00 | 0.00 | 1012.5 | |
| 20260507153200 | -17 | 352 | 11.3 | 20.9 | 0.00 | 0.00 | 0.00 | 1012.5 | |
| 20260507152650 | -17 | 10 | 12.9 | 24.1 | 0.00 | 0.00 | 0.00 | 1012.3 | |
| 20260507152140 | -17 | 5 | 14.5 | 24.1 | 0.00 | 0.00 | 0.00 | 1012.1 | |
| 20260507151631 | -17 | 41 | 14.5 | 24.1 | 0.00 | 0.00 | 0.00 | 1012.0 | |
| 20260507151120 | -17 | 50 | 12.9 | 22.5 | 0.00 | 0.00 | 0.00 | 1012.1 | |
| 20260507150610 | -17 | 5 | 12.9 | 22.5 | 0.00 | 0.00 | 0.00 | 1012.1 | |
| 20260507150101 | -17 | 10 | 12.9 | 20.9 | 0.00 | 0.00 | 0.00 | 1012.1 | |
| 20260507145546 | -17 | 25 | 14.5 | 24.1 | 0.00 | 0.00 | 0.00 | 1012.2 | |
| 20260507145307 | -17 | 19 | 14.5 | 24.1 | 0.00 | 0.00 | 0.00 | 1012.2 | |
| 20260507144526 | -17 | 51 | 12.9 | 24.1 | 0.00 | 0.00 | 0.00 | 1012.2 | |
| 20260507144247 | -17 | 10 | 12.9 | 24.1 | 0.00 | 0.00 | 0.00 | 1012.0 | |
| 20260507143458 | -17 | 34 | 14.5 | 24.1 | 0.00 | 0.00 | 0.00 | 1012.0 | |
| 20260507142941 | -17 | 10 | 12.9 | 24.1 | 0.00 | 0.00 | 0.00 | 1012.0 | |
| 20260507142423 | -17 | 15 | 14.5 | 25.7 | 0.00 | 0.00 | 0.00 | 1011.8 | |
| 20260507141912 | -17 | 30 | 14.5 | 25.7 | 0.00 | 0.00 | 0.00 | 1011.9 | |
| 20260507141403 | -17 | 10 | 12.9 | 22.5 | 0.00 | 0.00 | 0.00 | 1012.0 | |
| 20260507141123 | -17 | 32 | 14.5 | 24.1 | 0.00 | 0.00 | 0.00 | 1012.0 | |
| 20260507140343 | -17 | 10 | 16.1 | 24.1 | 0.00 | 0.00 | 0.00 | 1011.9 | |
| 20260507135844 | -17 | 38 | 14.5 | 24.1 | 0.00 | 0.00 | 0.00 | 1011.8 | |
| 20260507135335 | -17 | 1 | 14.5 | 24.1 | 0.00 | 0.00 | 0.00 | 1012.0 | |
| 20260507134825 | -17 | 10 | 14.5 | 24.1 | 0.00 | 0.00 | 0.00 | 1011.9 | |
| 20260507134315 | -17 | 10 | 14.5 | 24.1 | 0.00 | 0.00 | 0.00 | 1011.9 | |
| 20260507133804 | -17 | 10 | 16.1 | 24.1 | 0.00 | 0.00 | 0.00 | 1011.9 | |
| 20260507133526 | -17 | 10 | 14.5 | 24.1 | 0.00 | 0.00 | 0.00 | 1011.9 | |
| 20260507132744 | -17 | 10 | 12.9 | 24.1 | 0.00 | 0.00 | 0.00 | 1011.7 | |
| 20260507132506 | -17 | 0 | 12.9 | 22.5 | 0.00 | 0.00 | 0.00 | 1011.6 | |
| 20260507131724 | -17 | 10 | 12.9 | 22.5 | 0.00 | 0.00 | 0.00 | 1011.5 | |
| 20260507131214 | -17 | 42 | 14.5 | 24.1 | 0.00 | 0.00 | 0.00 | 1011.4 | |
| 20260507130705 | -17 | 5 | 14.5 | 24.1 | 0.00 | 0.00 | 0.00 | 1011.3 | |
| 20260507130154 | -17 | 10 | 11.3 | 19.3 | 0.00 | 0.00 | 0.00 | 1011.2 | |
| 20260507125631 | -17 | 21 | 9.7 | 16.1 | 0.00 | 0.00 | 0.00 | 1010.9 | |
| 20260507125123 | -17 | 50 | 11.3 | 19.3 | 0.00 | 0.00 | 0.00 | 1011.0 | |
| 20260507124609 | -17 | 5 | 11.3 | 20.9 | 0.00 | 0.00 | 0.00 | 1010.9 | |
| 20260507124100 | -17 | 10 | 9.7 | 19.3 | 0.00 | 0.00 | 0.00 | 1011.1 | |
| 20260507123552 | -17 | 38 | 9.7 | 19.3 | 0.00 | 0.00 | 0.00 | 1010.9 | |
| 20260507123046 | -17 | 10 | 12.9 | 20.9 | 0.00 | 0.00 | 0.00 | 1010.7 | |
| 20260507122539 | -17 | 359 | 11.3 | 20.9 | 0.00 | 0.00 | 0.00 | 1010.5 | |
| 20260507122035 | -17 | 15 | 11.3 | 20.9 | 0.00 | 0.00 | 0.00 | 1010.6 | |
| 20260507121524 | -17 | 51 | 12.9 | 20.9 | 0.00 | 0.00 | 0.00 | 1010.5 | |
| 20260507121250 | -17 | 5 | 11.3 | 17.7 | 0.00 | 0.00 | 0.00 | 1010.4 | |
| 20260507120517 | -17 | 50 | 11.3 | 19.3 | 0.00 | 0.00 | 0.00 | 1010.7 | |
| 20260507120015 | -17 | 15 | 9.7 | 19.3 | 0.00 | 0.00 | 0.00 | 1010.8 | |
| 20260507115511 | -17 | 10 | 8.0 | 16.1 | 0.00 | 0.00 | 0.00 | 1010.9 | |
| 20260507115233 | -17 | 15 | 8.0 | 16.1 | 0.00 | 0.00 | 0.00 | 1011.1 | |
| 20260507114456 | -17 | 10 | 9.7 | 16.1 | 0.00 | 0.00 | 0.00 | 1011.3 | |
| 20260507113953 | -17 | 10 | 11.3 | 16.1 | 0.00 | 0.00 | 0.00 | 1011.3 | |
| 20260507113448 | -17 | 5 | 11.3 | 16.1 | 0.00 | 0.00 | 0.00 | 1010.9 | |
| 20260507112943 | -17 | 19 | 9.7 | 17.7 | 0.00 | 0.00 | 0.00 | 1010.7 | |
| 20260507112436 | -17 | 10 | 8.0 | 17.7 | 0.00 | 0.00 | 0.00 | 1010.7 | |
| 20260507111927 | -17 | 10 | 8.0 | 16.1 | 0.00 | 0.00 | 0.00 | 1010.6 | |
| 20260507111657 | -17 | 5 | 6.4 | 16.1 | 0.00 | 0.00 | 0.00 | 1010.5 | |
| 20260507110922 | -17 | 10 | 6.4 | 16.1 | 0.00 | 0.00 | 0.00 | 1010.4 | |
| 20260507110419 | -17 | 10 | 8.0 | 16.1 | 0.00 | 0.00 | 0.00 | 1010.3 | |
| 20260507110144 | -17 | 5 | 8.0 | 16.1 | 0.00 | 0.00 | 0.00 | 1010.4 | |
| 20260507105410 | -17 | 10 | 8.0 | 17.7 | 0.00 | 0.00 | 0.00 | 1010.4 | |
| 20260507104918 | -17 | 352 | 9.7 | 17.7 | 0.00 | 0.00 | 0.00 | 1010.3 | |
| 20260507104349 | -17 | 39 | 9.7 | 19.3 | 0.00 | 0.00 | 0.00 | 1010.2 | |
| 20260507103844 | -17 | 10 | 11.3 | 19.3 | 0.00 | 0.00 | 0.00 | 1010.1 | |
| 20260507103341 | -17 | 5 | 11.3 | 17.7 | 0.00 | 0.00 | 0.00 | 1010.0 | |
| 20260507102833 | -17 | 10 | 11.3 | 17.7 | 0.00 | 0.00 | 0.00 | 1010.1 | |
| 20260507102333 | -17 | 10 | 9.7 | 16.1 | 0.00 | 0.00 | 0.00 | 1010.2 | |
| 20260507101831 | -17 | 5 | 9.7 | 16.1 | 0.00 | 0.00 | 0.00 | 1010.1 | |
| 20260507101327 | -17 | 10 | 11.3 | 17.7 | 0.00 | 0.00 | 0.00 | 1010.1 | |
| 20260507100826 | -17 | 10 | 12.9 | 19.3 | 0.00 | 0.00 | 0.00 | 1010.1 | |
| 20260507100323 | -17 | 10 | 14.5 | 19.3 | 0.00 | 0.00 | 0.00 | 1010.0 | |
| 20260507095819 | -17 | 15 | 11.3 | 19.3 | 0.00 | 0.00 | 0.00 | 1009.9 | |
| 20260507095312 | -17 | 10 | 9.7 | 16.1 | 0.00 | 0.00 | 0.00 | 1009.8 | |
| 20260507094804 | -17 | 10 | 6.4 | 16.1 | 0.00 | 0.00 | 0.00 | 1009.6 | |
| 20260507094302 | -17 | 5 | 6.4 | 16.1 | 0.00 | 0.00 | 0.00 | 1009.6 | |
| 20260507094026 | -17 | 0 | 8.0 | 16.1 | 0.00 | 0.00 | 0.00 | 1009.7 | |
| 20260507093246 | -17 | 5 | 9.7 | 19.3 | 0.00 | 0.00 | 0.00 | 1009.7 | |
| 20260507092735 | -17 | 33 | 11.3 | 19.3 | 0.00 | 0.00 | 0.00 | 1009.6 | |
| 20260507092227 | -17 | 10 | 8.0 | 17.7 | 0.00 | 0.00 | 0.00 | 1009.7 | |
| 20260507091941 | -17 | 39 | 8.0 | 16.1 | 0.00 | 0.00 | 0.00 | 1009.6 | |
| 20260507091432 | -17 | 42 | 8.0 | 16.1 | 0.00 | 0.00 | 0.00 | 1009.6 | |
| 20260507090652 | -17 | 51 | 8.0 | 16.1 | 0.00 | 0.00 | 0.00 | 1009.5 | |
| 20260507090425 | -17 | 22 | 8.0 | 14.5 | 0.00 | 0.00 | 0.00 | 1009.6 | |
| 20260507085641 | -17 | 19 | 8.0 | 20.9 | 0.00 | 0.00 | 0.00 | 1009.6 | |
| 20260507085141 | -17 | 20 | 9.7 | 20.9 | 0.00 | 0.00 | 0.00 | 1009.6 | |
| 20260507084640 | -17 | 10 | 11.3 | 17.7 | 0.00 | 0.00 | 0.00 | 1009.6 | |
| 20260507084130 | -17 | 359 | 11.3 | 19.3 | 0.00 | 0.00 | 0.00 | 1009.5 | |
| 20260507083617 | -17 | 10 | 11.3 | 19.3 | 0.00 | 0.00 | 0.00 | 1009.5 | |
| 20260507083108 | -17 | 5 | 9.7 | 17.7 | 0.00 | 0.00 | 0.00 | 1009.5 | |
| 20260507082558 | -17 | 10 | 8.0 | 16.1 | 0.00 | 0.00 | 0.00 | 1009.5 | |
| 20260507082046 | -17 | 10 | 8.0 | 17.7 | 0.00 | 0.00 | 0.00 | 1009.5 | |
| 20260507081802 | -17 | 348 | 8.0 | 17.7 | 0.00 | 0.00 | 0.00 | 1009.5 | |
| 20260507081022 | -17 | 10 | 9.7 | 17.7 | 0.00 | 0.00 | 0.00 | 1009.5 | |
| 20260507080511 | -17 | 10 | 8.0 | 17.7 | 0.00 | 0.00 | 0.00 | 1009.5 | |
| 20260507080001 | -17 | 69 | 8.0 | 17.7 | 0.00 | 0.00 | 0.00 | 1009.5 | |
| 20260507075450 | -17 | 10 | 6.4 | 14.5 | 0.00 | 0.00 | 0.00 | 1009.5 | |
| 20260507075210 | -17 | 10 | 6.4 | 14.5 | 0.00 | 0.00 | 0.00 | 1009.5 | |
| 20260507074430 | -17 | 10 | 6.4 | 14.5 | 0.00 | 0.00 | 0.00 | 1009.4 | |
| 20260507073925 | -17 | 32 | 8.0 | 14.5 | 0.00 | 0.00 | 0.00 | 1009.5 | |
| 20260507073416 | -17 | 5 | 9.7 | 17.7 | 0.00 | 0.00 | 0.00 | 1009.5 | |
| 20260507072905 | -17 | 10 | 8.0 | 17.7 | 0.00 | 0.00 | 0.00 | 1009.6 | |
| 20260507072355 | -17 | 10 | 8.0 | 17.7 | 0.00 | 0.00 | 0.00 | 1009.7 | |
| 20260507071845 | -17 | 36 | 8.0 | 17.7 | 0.00 | 0.00 | 0.00 | 1009.7 | |
| 20260507071340 | -17 | 15 | 9.7 | 17.7 | 0.00 | 0.00 | 0.00 | 1009.6 | |
| 20260507071103 | -17 | 10 | 9.7 | 17.7 | 0.00 | 0.00 | 0.00 | 1009.7 | |
| 20260507070319 | -17 | 10 | 8.0 | 17.7 | 0.00 | 0.00 | 0.00 | 1009.7 | |
| 20260507065807 | -17 | 47 | 9.7 | 16.1 | 0.00 | 0.00 | 0.00 | 1009.8 | |
| 20260507065529 | -17 | 42 | 9.7 | 19.3 | 0.00 | 0.00 | 0.00 | 1009.8 | |
| 20260507064241 | -17 | 358 | 11.3 | 20.9 | 0.00 | 0.00 | 0.00 | 1009.8 | |
| 20260507063731 | -17 | 10 | 11.3 | 20.9 | 0.00 | 0.00 | 0.00 | 1009.9 | |
| 20260507063452 | -17 | 345 | 11.3 | 19.3 | 0.00 | 0.00 | 0.00 | 1009.9 | |
| 20260507062722 | -17 | 358 | 9.7 | 17.7 | 0.00 | 0.00 | 0.00 | 1009.9 | |
| 20260507062223 | -17 | 51 | 8.0 | 17.7 | 0.00 | 0.00 | 0.00 | 1009.8 | |
| 20260507061713 | -17 | 10 | 9.7 | 17.7 | 0.00 | 0.00 | 0.00 | 1009.9 | |
| 20260507061205 | -17 | 10 | 9.7 | 17.7 | 0.00 | 0.00 | 0.00 | 1009.8 | |
| 20260507060655 | -17 | 10 | 11.3 | 17.7 | 0.00 | 0.00 | 0.00 | 1009.9 | |
| 20260507060145 | -17 | 5 | 9.7 | 17.7 | 0.00 | 0.00 | 0.00 | 1009.7 | |
| 20260507055635 | -17 | 341 | 8.0 | 17.7 | 0.00 | 0.00 | 0.00 | 1009.7 | |
| 20260507055124 | -17 | 10 | 9.7 | 17.7 | 0.00 | 0.00 | 0.00 | 1009.5 | |
| 20260507054615 | -17 | 46 | 9.7 | 17.7 | 0.00 | 0.00 | 0.00 | 1009.5 | |
| 20260507054055 | -17 | 27 | 8.0 | 16.1 | 0.00 | 0.00 | 0.00 | 1009.5 | |
| 20260507053546 | -17 | 10 | 8.0 | 16.1 | 0.00 | 0.00 | 0.00 | 1009.5 | |
| 20260507053035 | -17 | 15 | 8.0 | 17.7 | 0.00 | 0.00 | 0.00 | 1009.4 | |
| 20260507052523 | -17 | 1 | 9.7 | 19.3 | 0.00 | 0.00 | 0.00 | 1009.4 | |
| 20260507052244 | -17 | 10 | 12.9 | 19.3 | 0.00 | 0.00 | 0.00 | 1009.3 | |
| 20260507051724 | -17 | 32 | 11.3 | 19.3 | 0.00 | 0.00 | 0.00 | 1009.3 | |
| 20260507050421 | -17 | 19 | 11.3 | 20.9 | 0.00 | 0.00 | 0.00 | 1009.4 | |
| 20260507045914 | -17 | 10 | 12.9 | 19.3 | 0.00 | 0.00 | 0.00 | 1009.5 | |
| 20260507045405 | -17 | 10 | 11.3 | 19.3 | 0.00 | 0.00 | 0.00 | 1009.5 | |
| 20260507044854 | -17 | 10 | 8.0 | 16.1 | 0.00 | 0.00 | 0.00 | 1009.5 | |
| 20260507043826 | -17 | 5 | 8.0 | 16.1 | 0.00 | 0.00 | 0.00 | 1009.4 | |
| 20260507043316 | -17 | 15 | 9.7 | 17.7 | 0.00 | 0.00 | 0.00 | 1009.2 | |
| 20260507042805 | -17 | 24 | 9.7 | 19.3 | 0.00 | 0.00 | 0.00 | 1009.3 | |
| 20260507042255 | -17 | 0 | 8.0 | 19.3 | 0.00 | 0.00 | 0.00 | 1009.4 | |
| 20260507041744 | -17 | 49 | 9.7 | 19.3 | 0.00 | 0.00 | 0.00 | 1009.3 | |
| 20260507041235 | -17 | 27 | 11.3 | 17.7 | 0.00 | 0.00 | 0.00 | 1009.2 | |
| 20260507040722 | -17 | 10 | 11.3 | 19.3 | 0.00 | 0.00 | 0.00 | 1009.3 | |
| 20260507040212 | -17 | 5 | 11.3 | 20.9 | 0.00 | 0.00 | 0.00 | 1009.1 | |
| 20260507035702 | -17 | 38 | 11.3 | 20.9 | 0.00 | 0.00 | 0.00 | 1009.0 | |
| 20260507034642 | -17 | 19 | 9.7 | 22.5 | 0.00 | 0.00 | 0.00 | 1008.9 | |
| 20260507034132 | -17 | 29 | 11.3 | 22.5 | 0.00 | 0.00 | 0.00 | 1008.8 | |
| 20260507033622 | -17 | 10 | 11.3 | 22.5 | 0.00 | 0.00 | 0.00 | 1008.8 | |
| 20260507033112 | -17 | 34 | 9.7 | 19.3 | 0.00 | 0.00 | 0.00 | 1008.7 | |
| 20260507032554 | -17 | 29 | 9.7 | 20.9 | 0.00 | 0.00 | 0.00 | 1008.6 | |
| 20260507032045 | -17 | 20 | 9.7 | 16.1 | 0.00 | 0.00 | 0.00 | 1008.6 | |
| 20260507031534 | -17 | 43 | 9.7 | 17.7 | 0.00 | 0.00 | 0.00 | 1008.4 | |
| 20260507031248 | -17 | 5 | 9.7 | 17.7 | 0.00 | 0.00 | 0.00 | 1008.4 | |
| 20260507030738 | -17 | 10 | 11.3 | 17.7 | 0.00 | 0.00 | 0.00 | 1008.4 | |
| 20260507025448 | -17 | 10 | 4.8 | 17.7 | 0.00 | 0.00 | 0.00 | 1008.2 | |
| 20260507024943 | -17 | 10 | 1.6 | 6.4 | 0.00 | 0.00 | 0.00 | 1008.1 | |
| 20260507024432 | -17 | 10 | 0.0 | 3.2 | 0.00 | 0.00 | 0.00 | 1008.0 | |
| 20260507023923 | -17 | 61 | 0.0 | 0.0 | 0.00 | 0.00 | 0.00 | 1007.8 | |
| 20260507023413 | -17 | 109 | 0.0 | 0.0 | 0.00 | 0.00 | 0.00 | 1007.7 | |
| 20260507022905 | -17 | 109 | 0.0 | 0.0 | 0.00 | 0.00 | 0.00 | 1007.6 | |
| 20260507022354 | -17 | 109 | 0.0 | 0.0 | 0.00 | 0.00 | 0.00 | 1007.6 | |
| 20260507021845 | -17 | 109 | 0.0 | 0.0 | 0.00 | 0.00 | 0.00 | 1007.4 | |
| 20260507021337 | -17 | 109 | 0.0 | 0.0 | 0.00 | 0.00 | 0.00 | 1007.3 | |
| 20260507020829 | -17 | 109 | 0.0 | 1.6 | 0.00 | 0.00 | 0.00 | 1007.2 | |
| 20260507020321 | -17 | 109 | 0.0 | 3.2 | 0.00 | 0.00 | 0.00 | 1007.0 | |
| 20260507015811 | -17 | 114 | 0.0 | 3.2 | 0.00 | 0.00 | 0.00 | 1006.8 | |
| 20260507015307 | -17 | 112 | 0.0 | 3.2 | 0.00 | 0.00 | 0.00 | 1006.7 | |
| 20260507014801 | -17 | 115 | 0.0 | 3.2 | 0.00 | 0.00 | 0.00 | 1006.7 | |
| 20260507014252 | -17 | 108 | 0.0 | 3.2 | 0.00 | 0.00 | 0.00 | 1006.6 | |
| 20260507013237 | -17 | 113 | 1.6 | 3.2 | 0.00 | 0.00 | 0.00 | 1006.6 | |
| 20260507012734 | -17 | 114 | 0.0 | 3.2 | 0.00 | 0.00 | 0.00 | 1006.5 | |
| 20260507012230 | -17 | 116 | 0.0 | 3.2 | 0.00 | 0.00 | 0.00 | 1006.5 | |
| 20260507011725 | -17 | 117 | 0.0 | 3.2 | 0.00 | 0.00 | 0.00 | 1006.4 | |
| 20260507011218 | -17 | 117 | 0.0 | 1.6 | 0.00 | 0.00 | 0.00 | 1006.3 | |
| 20260507010715 | -17 | 117 | 0.0 | 1.6 | 0.00 | 0.00 | 0.00 | 1006.3 | |
| 20260507010212 | -17 | 117 | 0.0 | 0.0 | 0.00 | 0.00 | 0.00 | 1006.3 | |
| 20260507005946 | -17 | 117 | 0.0 | 0.0 | 0.00 | 0.00 | 0.00 | 1006.3 | |
| 20260507005210 | -17 | 117 | 0.0 | 1.6 | 0.00 | 0.00 | 0.00 | 1006.3 | |
| 20260507004710 | -17 | 117 | 0.0 | 3.2 | 0.00 | 0.00 | 0.00 | 1006.2 | |
| 20260507004206 | -17 | 156 | 1.6 | 6.4 | 0.00 | 0.00 | 0.00 | 1006.1 | |
| 20260507003709 | -17 | 146 | 4.8 | 12.9 | 0.00 | 0.00 | 0.00 | 1005.9 | |
| 20260507003438 | -17 | 10 | 4.8 | 12.9 | 0.00 | 0.00 | 0.00 | 1005.9 | |
| 20260507002704 | -17 | 10 | 3.2 | 12.9 | 0.00 | 0.00 | 0.00 | 1005.7 | |
| 20260507002159 | -17 | 150 | 4.8 | 12.9 | 0.00 | 0.00 | 0.00 | 1005.7 | |
| 20260507001138 | -17 | 10 | 8.0 | 16.1 | 0.00 | 0.00 | 0.00 | 1005.5 | |
| 20260507000634 | -17 | 10 | 9.7 | 16.1 | 0.00 | 0.00 | 0.00 | 1005.4 | |
| 20260507000358 | -17 | 10 | 11.3 | 16.1 | 0.00 | 0.00 | 0.00 | 1005.4 | |
| 20260506235622 | -17 | 10 | 9.7 | 16.1 | 0.00 | 0.00 | 0.00 | 1005.4 | |
| 20260506235115 | -17 | 10 | 8.0 | 14.5 | 0.00 | 0.00 | 0.00 | 1005.5 | |
| 20260506234610 | -17 | 10 | 8.0 | 12.9 | 0.00 | 0.00 | 0.00 | 1005.5 | |
| 20260506234053 | -17 | 10 | 8.0 | 14.5 | 0.00 | 0.00 | 0.00 | 1005.5 | |
| 20260506233545 | -17 | 10 | 8.0 | 14.5 | 0.00 | 0.00 | 0.00 | 1005.5 | |
| 20260506233043 | -17 | 138 | 8.0 | 12.9 | 0.00 | 0.00 | 0.00 | 1005.4 | |
| 20260506232537 | -17 | 10 | 8.0 | 12.9 | 0.00 | 0.00 | 0.00 | 1005.4 | |
| 20260506232025 | -17 | 10 | 6.4 | 12.9 | 0.00 | 0.00 | 0.00 | 1005.4 | |
| 20260506231518 | -17 | 10 | 6.4 | 12.9 | 0.00 | 0.00 | 0.00 | 1005.3 | |
| 20260506231012 | -17 | 10 | 6.4 | 12.9 | 0.00 | 0.00 | 0.00 | 1005.3 | |
| 20260506230508 | -17 | 10 | 8.0 | 12.9 | 0.00 | 0.00 | 0.00 | 1005.3 | |
| 20260506225957 | -17 | 10 | 8.0 | 16.1 | 0.00 | 0.00 | 0.00 | 1005.3 |